sat.trackr.live / text

‹ back to catalog

STARLINK-3588

NORAD 51869 · 2022-022T

PAYLOAD ACTIVE UNKNOWN

§ Identity

Operator
Country
US
Launch date
2022-03-03
Launch site
AFETR
Launch vehicle
Mass (kg)
RCS (m²)

Purposes: comms

External: N2YO · Heavens-Above · Gunter

§ Orbital elements

Epoch: 2026-05-25T01:25:08.685120Z

Period
95.44 min
Inclination
53.2136°
Eccentricity
0.0001280
Mean motion
15.08839056 rev/d
Perigee alt
538.9 km
Apogee alt
540.6 km
Semi-major
6,917.9 km
B*
6.7091e-5
RAAN
26.2868°
Arg perigee
62.9859°
Mean anomaly
297.1264°
Rev number
23,464

§ Raw data

STARLINK-35881 51869U 22022T   26145.05912830  .00000780  00000+0  67091-4 0  99942 51869  53.2136  26.2868 0001280  62.9859 297.1264 15.08839056234648

JSON: /api/v1/satellites/51869 · /tle

For live sub-satellite position, see the globe view (requires WebGL).

§ Visibility from observer

Set your observer location to see the next 7 days of passes ≥ 10°. The values pass through the URL so the page stays shareable.

No JS? Fill the form by hand. The geolocation button needs JavaScript.